Weather reports worldwide

Advertisment
Murcia/San Javier, Spain (8433): temperature & dewpoint: 16.02.2019 22:00:00 - 22.02.2019 22:00:00 (CET)Murcia/San Javier, Spain (8433): wind speed: 16.02.2019 22:00:00 - 22.02.2019 22:00:00 (CET)Murcia/San Javier, Spain (8433): wind direction: 16.02.2019 22:00:00 - 22.02.2019 22:00:00 (CET)Murcia/San Javier, Spain (8433): reduced air pressure: 16.02.2019 22:00:00 - 22.02.2019 22:00:00 (CET)Murcia/San Javier, Spain (8433): visibility: 16.02.2019 22:00:00 - 22.02.2019 22:00:00 (CET)
Date & Time tt [°C] td [°C] ff [km/h] ff [kn] dd ppp [hPa] vv [km]
22.02.2019 22:00:00 10,5 7,2 13 7 W 1029,5 -
22.02.2019 21:00:00 11,6 9,2 13 7 WSW 1029,4 -
22.02.2019 20:00:00 12,7 9,3 15 8 SW 1029,2 -
22.02.2019 19:00:00 14,2 9,2 13 7 WSW 1028,7 9
22.02.2019 18:00:00 17,9 9,0 13 7 SSW 1028,7 -
22.02.2019 17:00:00 18,2 11,5 13 7 S 1028,7 -
22.02.2019 16:00:00 18,4 11,7 15 8 SSE 1029,0 10
22.02.2019 15:00:00 18,8 10,5 11 6 SE 1029,4 -
22.02.2019 14:00:00 17,6 10,9 11 6 SSE 1030,0 -
22.02.2019 13:00:00 16,8 9,9 13 7 SE 1031,4 10
22.02.2019 12:00:00 16,7 8,6 11 6 SSE 1032,2 -
22.02.2019 11:00:00 15,2 7,4 13 7 WSW 1032,6 -
22.02.2019 10:00:00 12,2 6,8 9 5 W 1032,5 7
22.02.2019 09:00:00 6,9 5,8 8 4 W 1032,5 -
22.02.2019 08:00:00 3,6 3,0 9 5 W 1032,2 -
22.02.2019 07:00:00 3,0 2,6 9 5 WSW 1032,1 9
22.02.2019 06:00:00 3,6 2,7 8 4 W 1032,4 -
22.02.2019 05:00:00 4,4 3,7 9 5 WNW 1031,9 -
22.02.2019 04:00:00 5,0 4,4 9 5 WSW 1032,1 -
22.02.2019 03:00:00 5,5 4,8 8 4 W 1032,4 -
22.02.2019 02:00:00 6,1 5,2 8 4 W 1032,6 -
22.02.2019 01:00:00 6,9 5,8 11 6 NW 1032,6 -
22.02.2019 00:00:00 7,3 5,6 11 6 NW 1032,4 -
21.02.2019 23:00:00 7,7 5,5 9 5 NW 1032,6 -
21.02.2019 22:00:00 8,3 6,1 9 5 NW 1032,4 -
21.02.2019 21:00:00 12,5 9,0 8 4 E 1031,5 -
21.02.2019 20:00:00 12,8 8,9 8 4 E 1031,0 -
21.02.2019 19:00:00 13,3 8,3 8 4 E 1030,5 15
21.02.2019 18:00:00 14,7 8,8 9 5 E 1030,2 -
21.02.2019 17:00:00 15,7 9,0 11 6 E 1030,1 -
21.02.2019 16:00:00 16,3 8,6 13 7 E 1030,1 15
21.02.2019 15:00:00 16,8 8,1 9 5 E 1030,1 -
21.02.2019 14:00:00 16,4 9,3 13 7 ENE 1030,1 -
21.02.2019 13:00:00 16,2 9,1 15 8 ENE 1030,5 10
21.02.2019 12:00:00 16,0 9,3 15 8 NE 1030,7 -
21.02.2019 11:00:00 15,3 9,2 15 8 NNE 1030,3 -
21.02.2019 10:00:00 13,9 9,0 8 4 N 1030,2 8
21.02.2019 09:00:00 9,5 8,4 8 4 WSW 1030,0 -
21.02.2019 08:00:00 8,5 7,9 0 0 N 1029,0 -
21.02.2019 07:00:00 7,3 6,9 4 2 WNW 1028,5 9
21.02.2019 06:00:00 6,6 6,0 8 4 W 1028,1 -
21.02.2019 05:00:00 7,6 7,3 4 2 SSW 1028,0 -
21.02.2019 04:00:00 6,6 6,0 11 6 NW 1027,8 -
21.02.2019 03:00:00 7,0 6,1 5 3 WNW 1028,0 -
21.02.2019 02:00:00 7,6 6,6 8 4 W 1027,9 -
21.02.2019 01:00:00 8,8 6,9 9 5 WNW 1028,0 -
21.02.2019 00:00:00 10,0 8,3 9 5 NW 1027,9 -
20.02.2019 23:00:00 10,3 8,4 9 5 NNW 1027,9 -
20.02.2019 22:00:00 10,0 7,4 9 5 NW 1027,7 -
20.02.2019 21:00:00 13,2 10,2 8 4 E 1026,7 -
20.02.2019 20:00:00 13,3 10,1 9 5 E 1026,3 -
20.02.2019 19:00:00 13,6 9,8 13 7 E 1025,4 15
20.02.2019 18:00:00 14,7 10,5 13 7 E 1025,0 -
20.02.2019 17:00:00 15,5 10,0 16 9 E 1025,0 -
20.02.2019 16:00:00 15,9 9,8 16 9 E 1025,1 10
20.02.2019 15:00:00 16,3 9,1 16 9 E 1025,2 -
20.02.2019 14:00:00 16,6 9,0 13 7 E 1025,5 -
20.02.2019 13:00:00 16,7 9,1 11 6 ENE 1025,9 10
20.02.2019 12:00:00 16,6 8,5 13 7 NE 1026,1 -
20.02.2019 11:00:00 16,0 8,5 11 6 N 1025,8 -
20.02.2019 10:00:00 14,1 7,5 13 7 NNW 1025,2 10
20.02.2019 09:00:00 10,3 7,5 11 6 NW 1024,6 -
20.02.2019 08:00:00 7,5 6,6 13 7 NW 1023,8 -
20.02.2019 07:00:00 8,3 6,6 11 6 N 1023,2 10
20.02.2019 06:00:00 9,0 7,4 15 8 NNW 1023,0 -
20.02.2019 05:00:00 9,7 8,3 11 6 NNW 1022,7 -
20.02.2019 04:00:00 11,0 8,7 8 4 NNW 1022,8 -
20.02.2019 03:00:00 11,1 9,5 8 4 NNW 1023,1 -
20.02.2019 02:00:00 10,5 9,3 13 7 NNW 1023,0 -
20.02.2019 01:00:00 10,0 8,3 13 7 NNW 1023,0 -
20.02.2019 00:00:00 11,3 8,7 9 5 NNW 1022,9 -
19.02.2019 23:00:00 13,3 9,9 18 10 NE 1022,8 -
19.02.2019 22:00:00 13,3 9,9 16 9 NE 1022,2 -
19.02.2019 21:00:00 13,4 10,0 18 10 ENE 1021,8 -
19.02.2019 20:00:00 13,5 9,5 22 12 ENE 1021,5 -
19.02.2019 19:00:00 13,5 9,9 22 12 ENE 1020,7 20
19.02.2019 18:00:00 14,2 9,6 22 12 ENE 1020,3 -
19.02.2019 17:00:00 15,3 9,9 21 11 NE 1020,3 -
19.02.2019 16:00:00 15,8 10,3 22 12 NE 1020,4 20
19.02.2019 15:00:00 16,2 9,7 18 10 NE 1020,7 -
19.02.2019 14:00:00 16,7 9,5 16 9 NE 1021,2 -
19.02.2019 13:00:00 16,3 8,4 18 10 NE 1021,8 15
19.02.2019 12:00:00 16,3 7,2 18 10 NNE 1022,0 -
19.02.2019 11:00:00 15,9 7,6 18 10 NNE 1021,9 -
19.02.2019 10:00:00 13,8 6,5 13 7 NNW 1021,7 15
19.02.2019 09:00:00 10,7 6,1 16 9 NNW 1021,2 -
19.02.2019 08:00:00 9,3 6,0 16 9 NW 1020,5 -
19.02.2019 07:00:00 8,6 6,2 15 8 NNW 1020,3 15
19.02.2019 06:00:00 8,8 6,1 15 8 NNW 1020,2 -
19.02.2019 05:00:00 9,8 6,9 15 8 N 1019,9 -
19.02.2019 04:00:00 9,9 7,5 16 9 NNW 1020,1 -
19.02.2019 03:00:00 10,7 8,3 15 8 N 1020,4 -
19.02.2019 02:00:00 13,1 10,4 28 15 NNE 1020,3 -
19.02.2019 01:00:00 13,2 10,9 28 15 NNE 1020,3 -
19.02.2019 00:00:00 13,3 11,3 28 15 NNE 1020,5 -
18.02.2019 23:00:00 13,8 11,1 21 11 NE 1020,8 -
18.02.2019 22:00:00 13,7 11,2 24 13 NE 1020,5 -
18.02.2019 21:00:00 13,7 11,0 22 12 NE 1020,2 -
18.02.2019 20:00:00 13,6 10,8 22 12 NNE 1020,0 -
18.02.2019 19:00:00 13,8 11,0 24 13 NE 1019,4 15
18.02.2019 18:00:00 14,4 11,0 24 13 NE 1019,1 -
18.02.2019 17:00:00 15,3 11,5 22 12 NE 1019,3 -
18.02.2019 16:00:00 16,2 12,3 24 13 ENE 1019,6 15
18.02.2019 15:00:00 16,6 12,3 28 15 ENE 1019,9 -
18.02.2019 14:00:00 16,2 12,4 22 12 NE 1020,7 -
18.02.2019 13:00:00 16,3 12,2 26 14 NE 1021,2 15
18.02.2019 12:00:00 15,1 11,7 18 10 NNE 1021,8 -
18.02.2019 11:00:00 14,3 10,5 22 12 NNE 1021,8 -
18.02.2019 10:00:00 13,0 9,6 15 8 N 1021,9 10
18.02.2019 09:00:00 11,1 8,7 16 9 N 1021,6 -
18.02.2019 08:00:00 10,0 8,3 13 7 NNW 1021,2 -
18.02.2019 07:00:00 10,4 8,6 18 10 N 1021,1 9
18.02.2019 06:00:00 9,8 8,7 13 7 N 1021,3 -
18.02.2019 05:00:00 9,9 8,7 15 8 NNW 1021,6 -
18.02.2019 04:00:00 10,2 9,0 15 8 N 1022,1 -
18.02.2019 03:00:00 10,2 9,3 16 9 N 1022,5 -
18.02.2019 02:00:00 10,8 9,7 15 8 NNW 1023,1 -
18.02.2019 01:00:00 11,5 10,2 11 6 NNW 1023,3 -
18.02.2019 00:00:00 13,1 11,8 18 10 NNE 1023,5 -
17.02.2019 23:00:00 13,2 12,1 16 9 NE 1023,8 -
17.02.2019 22:00:00 13,6 12,3 15 8 NE 1023,9 -
17.02.2019 21:00:00 13,5 12,2 16 9 NE 1023,6 -
17.02.2019 20:00:00 13,3 11,9 22 12 NE 1023,5 -
17.02.2019 19:00:00 13,4 11,3 18 10 NE 1023,3 15
17.02.2019 18:00:00 14,2 11,4 22 12 NE 1023,1 -
17.02.2019 17:00:00 15,5 11,5 21 11 NE 1023,6 -
17.02.2019 16:00:00 16,2 11,2 22 12 NE 1023,9 15
17.02.2019 15:00:00 15,8 11,0 26 14 NE 1024,5 -
17.02.2019 14:00:00 15,7 10,8 28 15 NNE 1025,3 -
17.02.2019 13:00:00 15,0 9,1 26 14 NNE 1025,9 15
17.02.2019 12:00:00 15,1 9,0 28 15 NNE 1026,1 -
17.02.2019 11:00:00 13,9 8,3 22 12 NNE 1026,3 -
17.02.2019 10:00:00 12,9 7,4 18 10 N 1026,5 15
17.02.2019 09:00:00 12,3 6,8 16 9 N 1026,2 -
17.02.2019 08:00:00 11,8 6,1 16 9 N 1025,7 -
17.02.2019 07:00:00 11,6 6,5 15 8 N 1025,7 15
17.02.2019 06:00:00 11,4 7,1 13 7 N 1025,7 -
17.02.2019 05:00:00 11,2 7,7 15 8 NNW 1025,7 -
17.02.2019 04:00:00 11,3 8,0 16 9 N 1026,0 -
17.02.2019 03:00:00 13,0 10,5 29 16 NNE 1026,4 -
17.02.2019 02:00:00 12,9 10,3 28 15 NNE 1026,7 -
17.02.2019 01:00:00 12,9 10,1 26 14 NNE 1027,0 -
17.02.2019 00:00:00 13,1 10,1 26 14 NNE 1027,1 -
16.02.2019 23:00:00 13,2 10,0 28 15 NE 1027,3 -
16.02.2019 22:00:00 13,2 10,3 31 17 NE 1026,9 -

tt = temperature
td = dewpoint
ff = wind speed
dd = wind direction
ppp = reduced air pressure
vv = visibility

Next stations